Showing default

ZHUHAI-1 03C, 44537

Orbit data source: Space-Track

ZHUHAI-1 03C, 44537 is a payload satellite owned by Zhuhai Orbita (CN) in SSO that was launched on Thu, 19 Sep 2019 UTC via a CHANG ZHENG 11 launch vehicle from the Jiuquan Satellite Launch Center, China (JSC). Payloads include a variety of satellites, spacecraft, and rockets equipped with specific instruments for various scientific and technological missions. These include communications satellites like Starlink; space stations such as the ISS; scientific satellites like the Hubble; Earth observation satellites from companies like Planet Labs, Umbra, and HawkEye 360; GPS; miniature CubeSats for education and research; and military/defense satellites.

Loading next visibility...
ZHUHAI-1 03C details
Identifier
44537, 2019-060D
Orbit
SSO
Last TLE update9 hours ago
Origin
Flag of CNZhuhai Orbita (CN / PRC)
ManufacturerHarbin
MissionOperational Commercial Imaging
Bus & MotorOHS-1, Unknown motor
Mass69 kg wet, 69 kg dry
Launch date (UTC)
2019-09-19 (5 years ago)
Launch vehicle
CHANG ZHENG 11
Launch site
Jiuquan Satellite Launch Center, China (JSC)
Object type
Payload
Rocket body
Debris
Shape & HBRBox, Unknown HBR
Radar Cross Section0.280 m², Medium (>0.1 m² and < 1m²)

Expand to show TLE details & history

TLE from 9 hours ago
0 ZHUHAI-1 03C
1 44537U 19060D   24361.29071387  .00035690  00000-0  11519-2 0  9994
2 44537  97.5229 134.3338 0021718  70.5665 289.7921 15.31817114293714
Epoch: 2024-12-26T06:58Z
Definitive object data (Epoch: 2024-12-26T06:58:37.678Z)
Latitude0.00003°
Longitude-65.59542°
Altitude468.485 km
Speed7.635 km/s
True Right ascension08h 57m 20s
True Declination0° 00' 00"
Sunlit
Object was in full shadow at TLE epoch
Visualization TLE readout
Latitude-47.00366°
Longitude106.68066°
Altitude502.35 km
Speed7.604 km/s
Apparent Right ascension23h 54m 06s
Apparent Declination-56° 03' 53"
Sunlit
Object is in daylight
Visualization observer readout
Local Sidereal Time15:10:17
Azimuth133.604° SE
Elevation-54.393°
Doppler factor1
Orbital elements
Apogee altitude482.213 km
Perigee altitude452.479 km
Semi-major axis6,845.483 km
Eccentricity0.0021718
Inclination97.5229°
RAAN134.3338°
Arg. of periapsis70.5665°
True anomaly289.55772°
Mean anomaly289.7921°
Eccentric anomaly289.67493°
Mean motion3.8321 °/min
BSTAR0.0011519
Orbital period93.94 mins
Loading maneuver chart data...
Loading historical data...
Loading historical data...
Loading historical data...
Loading historical data...
Loading historical data...
Loading historical data...
Loading historical data...

ZHUHAI-1 03C Visibility forecast

Observer location: undefined°, undefined

Span
Click to sort rows by Start time (UTC) header in descending order
Start Az.
Max El. time (UTC)
Max El. Az.
Max El.
End time (UTC)
End Az.
5 mins2024-12-26 21:39:13.351Z30.412° NE2024-12-26 21:42:13.351Z124.82° SE33.409°2024-12-26 21:44:13.351Z167.929° S
4 mins2024-12-27 09:46:13.351Z219.862° SW2024-12-27 09:48:13.351Z273.918° WNW23.557°2024-12-27 09:50:13.351Z316.321° NNW
|